EW0868 Weather Reports


time (UTC)temp
F
wind
direction
speed
knots
gust
knots
rain 1hr
in
rain 24hr
in
rain mn
in
humidity
%
barometer
mb
20260506221542 55 241 5.2 8.7 0.00 0.00 0.00 84 1021.8
20260506220109 55 241 4.3 8.7 0.00 0.00 0.00 83 1021.8
20260506214545 55 218 5.2 8.7 0.00 0.00 0.00 84 1021.7
20260506213040 55 360 6.1 13.0 0.00 0.00 0.00 84 1021.7
20260506211536 55 227 4.3 7.0 0.00 0.00 0.00 83 1021.7
20260506210104 55 228 1.7 6.1 0.00 0.00 0.00 83 1021.7
20260506204556 55 261 3.5 8.7 0.00 0.00 0.00 83 1021.7
20260506203054 54 257 3.5 6.1 0.00 0.00 0.00 85 1021.6
20260506201605 54 241 2.6 7.8 0.00 0.00 0.00 85 1021.6
20260506200110 54 240 3.5 7.8 0.00 0.00 0.00 85 1021.5
20260506194546 54 251 3.5 7.8 0.00 0.00 0.00 86 1021.4
20260506193039 54 225 4.3 7.8 0.00 0.00 0.00 86 1021.4
20260506191537 54 234 3.5 7.0 0.00 0.00 0.00 86 1021.3
20260506190044 54 249 3.5 6.1 0.00 0.00 0.00 86 1021.1
20260506184559 54 251 1.7 6.1 0.00 0.00 0.00 86 1021.0
20260506183054 54 246 2.6 6.1 0.00 0.00 0.00 86 1020.9
20260506181547 53 233 0.0 3.5 0.00 0.00 0.00 86 1021.0
20260506180040 54 260 0.9 3.5 0.00 0.00 0.00 85 1021.1
20260506174533 53 248 0.9 6.1 0.00 0.00 0.00 84 1021.1
20260506173046 54 248 0.9 7.0 0.00 0.00 0.00 83 1021.0
20260506171543 54 202 1.7 5.2 0.00 0.00 0.00 84 1020.8
20260506170110 54 197 2.6 4.3 0.00 0.00 0.00 84 1020.8
20260506164546 54 279 0.0 2.6 0.00 0.00 0.00 83 1020.7
20260506163040 54 261 0.0 0.0 0.00 0.00 0.00 83 1020.6
20260506161537 54 214 2.6 3.5 0.00 0.00 0.00 83 1020.6
20260506160105 54 292 0.9 6.1 0.00 0.00 0.00 83 1020.7
20260506154538 54 360 0.9 4.3 0.00 0.00 0.00 83 1020.3
20260506153033 54 225 1.7 4.3 0.00 0.00 0.00 83 1020.3
20260506151547 54 223 0.9 5.2 0.00 0.00 0.00 83 1020.2
20260506150038 53 225 0.0 0.0 0.00 0.00 0.00 84 1019.9
20260506144553 53 360 0.0 0.0 0.00 0.00 0.00 83 1019.8
20260506143045 53 238 0.0 2.6 0.00 0.00 0.00 83 1019.8
20260506141542 53 227 0.0 2.6 0.00 0.00 0.00 84 1019.8
20260506140030 53 254 0.0 0.0 0.00 0.00 0.00 84 1019.6
20260506134548 53 232 0.0 0.9 0.00 0.00 0.00 84 1019.3
20260506133042 53 229 0.0 0.0 0.00 0.00 0.00 85 1019.2
20260506131540 53 229 0.0 0.0 0.00 0.00 0.00 85 1019.1
20260506130047 53 231 0.0 0.0 0.00 0.00 0.00 85 1019.4
20260506124600 53 250 0.0 0.0 0.00 0.00 0.00 86 1019.2
20260506123036 53 237 0.0 0.0 0.00 0.00 0.00 86 1019.2
20260506121549 53 248 0.0 0.0 0.00 0.00 0.00 86 1019.1
20260506120040 53 227 0.0 0.0 0.00 0.00 0.00 87 1018.8
20260506114533 53 229 0.0 0.0 0.00 0.00 0.00 87 1019.0
20260506113046 53 246 0.0 0.0 0.00 0.00 0.00 87 1019.0
20260506111542 53 242 0.0 1.7 0.00 0.00 0.00 86 1018.8
20260506110030 53 210 0.9 3.5 0.00 0.00 0.00 86 1018.7
20260506104550 53 254 0.0 0.0 0.00 0.00 0.00 87 1018.6
20260506103044 53 223 0.0 0.0 0.00 0.00 0.00 86 1018.4
20260506101541 53 360 0.0 0.0 0.00 0.00 0.00 86 1018.3
20260506100030 53 241 0.0 0.0 0.00 0.00 0.00 86 1018.4
20260506094548 53 241 0.0 0.0 0.00 0.00 0.00 85 1018.4
20260506093038 53 242 0.0 0.0 0.00 0.00 0.00 85 1018.3
20260506091530 53 271 0.0 0.0 0.00 0.00 0.00 85 1018.2
20260506090042 53 214 0.0 0.0 0.00 0.00 0.00 85 1018.2
20260506084535 54 252 0.0 0.0 0.00 0.00 0.00 85 1018.0
20260506083033 54 286 0.0 0.0 0.00 0.00 0.00 85 1018.1
20260506081546 54 300 0.0 0.0 0.00 0.00 0.00 85 1018.0
20260506073053 54 299 0.0 0.0 0.00 0.00 0.00 84 1017.4
20260506071548 54 299 0.0 0.0 0.00 0.00 0.00 84 1017.4
20260506061539 54 360 0.0 0.0 0.00 0.00 0.00 83 1017.4
20260506044539 55 230 0.0 0.0 0.00 0.00 0.00 83 1017.2
20260506043033 55 246 0.0 0.0 0.00 0.00 0.00 83 1017.0
20260506041530 55 250 1.7 5.2 0.00 0.00 0.00 83 1016.8
20260506040038 56 244 0.0 0.0 0.00 0.00 0.00 83 1016.7
20260506034531 56 265 0.0 0.0 0.00 0.00 0.00 83 1016.5
20260506033049 56 231 0.0 4.3 0.00 0.00 0.00 83 1016.4
20260506031542 56 288 0.0 3.5 0.00 0.00 0.00 82 1016.4
20260506030031 56 240 3.5 6.1 0.00 0.00 0.00 83 1016.3
20260506024545 57 261 2.6 6.1 0.00 0.00 0.00 82 1016.2
20260506023042 58 246 2.6 6.1 0.00 0.00 0.00 82 1016.1
20260506021536 58 188 4.3 7.0 0.00 0.00 0.00 82 1016.2
20260506020104 58 280 2.6 4.3 0.00 0.00 0.00 82 1016.1
20260506014540 58 258 4.3 7.8 0.00 0.00 0.00 81 1016.1
20260506013034 59 248 3.5 6.1 0.00 0.00 0.00 82 1016.1
20260506011530 59 247 5.2 8.7 0.00 0.00 0.00 81 1016.2
20260506010058 59 360 4.3 8.7 0.00 0.00 0.00 82 1016.0
20260506004530 59 245 6.1 7.8 0.00 0.00 0.00 81 1016.1
20260506003106 59 229 4.3 7.8 0.00 0.00 0.00 81 1016.0
20260506001538 59 255 4.3 12.2 0.00 0.00 0.00 82 1016.2
20260506000030 60 227 6.1 9.6 0.00 0.00 0.00 81 1016.2
20260505234544 60 250 4.3 8.7 0.00 0.00 0.00 81 1016.2
20260505233041 60 219 5.2 9.6 0.00 0.00 0.00 81 1016.3
20260505231534 60 246 6.1 8.7 0.00 0.00 0.00 80 1016.3
20260505230041 60 247 5.2 7.8 0.00 0.00 0.00 81 1016.4
20260505224540 60 268 5.2 7.8 0.00 0.00 0.00 81 1016.6
20260505223033 60 360 6.1 9.6 0.00 0.00 0.00 82 1016.6